This demonstration page uses our WeatherBlox Daily Observations layout. Learn more.

Left ArrowRight Arrow

36.19886, -115.1175

Hourly Observations for May 1, 2021

Temp ( °F °C ) Dew Point ( °F °C ) Humidity (%) Winds ( mph kmh ) Pressure ( in mb ) Visibility ( mi km ) Precip ( " mm )
12:53 am 00:53 Clear 76 24.4 32 undefined 20 20 NNW 3 6 29.82 1010 10 16 N/A
1:53 am 01:53 Clear 73 22.8 31 -0.6 21 21 WNW 6 9 29.81 1009 10 16 N/A
2:53 am 02:53 Clear 72 22.2 28 -2.2 19 19 WNW 6 9 29.79 1009 10 16 N/A
3:53 am 03:53 Clear 72 22.2 29 -1.7 20 20 WNW 6 9 29.78 1008 10 16 N/A
4:53 am 04:53 Clear 70 21.1 28 -2.2 21 21 NW 6 9 29.77 1008 10 16 N/A
5:53 am 05:53 Sunny 71 21.7 28 -2.2 20 20 WNW 5 7 29.76 1008 10 16 N/A
6:53 am 06:53 Sunny 71 21.7 28 -2.2 20 20 NW 5 7 29.77 1008 10 16 N/A
7:53 am 07:53 Sunny 77 25 28 -2.2 16 16 E 6 9 29.77 1008 10 16 N/A
8:53 am 08:53 Sunny 83 28.3 29 -1.7 14 14 E 5 7 29.75 1008 10 16 N/A
9:53 am 09:53 Sunny 88 31.1 27 -2.8 11 11 S 12 19 29.74 1007 10 16 N/A
10:53 am 10:53 Sunny 89 31.7 28 -2.2 11 11 S 23 37 29.71 1006 10 16 N/A
11:53 am 11:53 Sunny 88 31.1 29 -1.7 12 12 S 18 30 29.72 1006 10 16 N/A
12:53 pm 12:53 Sunny 93 33.9 27 -2.8 9 9 SSW 13 20 29.67 1005 10 16 N/A
1:53 pm 13:53 Sunny 95 35 26 -3.3 8 8 SW 18 30 29.63 1004 10 16 N/A
2:53 pm 14:53 Sunny 93 33.9 26 -3.3 9 9 SSW 21 33 29.61 1003 10 16 N/A
3:53 pm 15:53 Sunny 95 35 25 -3.9 8 8 SW 26 43 29.57 1002 10 16 N/A
4:53 pm 16:53 Sunny 94 34.4 23 -5 8 8 SSW 21 33 29.57 1001 10 16 N/A
5:53 pm 17:53 Sunny 93 33.9 21 -6.1 7 7 SSW 16 26 29.54 1001 10 16 N/A
6:53 pm 18:53 Sunny 90 32.2 21 -6.1 8 8 S 21 33 29.53 1000 10 16 N/A
7:53 pm 19:53 Clear 87 30.6 18 -7.8 8 8 SSW 18 30 29.53 1000 10 16 N/A
8:53 pm 20:53 Clear 85 29.4 21 -6.1 9 9 SSW 16 26 29.53 1000 10 16 N/A
9:53 pm 21:53 Clear 81 27.2 19 -7.2 10 10 S 14 22 29.52 1000 10 16 N/A
10:53 pm 22:53 Clear 79 26.1 20 -6.7 11 11 W 8 13 29.52 1000 10 16 N/A
11:53 pm 23:53 Clear 74 23.3 22 -5.6 14 14 N 3 6 29.54 1000 10 16 N/A

Powered by AerisWeather